Buffalo, NY

3:40 PM EDT on October 18, 2019 (GMT -0400)
Buffalo Niagara International

Weather History for KBUF - September, 2019

Change the Weather History Date:

Tuesday, September 17, 2019

  Actual Average Record
Temperature  
Mean Temperature 63 °F 62 °F  
Max Temperature 74 °F 71 °F 86 °F (1955)
Min Temperature 51 °F 53 °F 33 °F (1959)
Degree Days  
Heating Degree Days 2 5  
Month to date heating degree days 20 48  
Since 1 July heating degree days 23 75  
Cooling Degree Days 0 1  
Month to date cooling degree days 26 42  
Year to date cooling degree days 571 529  
Growing Degree Days 12 (Base 50)    
Moisture  
Dew Point 49 °F    
Average Humidity 62    
Maximum Humidity 83    
Minimum Humidity 41    
Precipitation  
Precipitation 0.00 in 0.14 in 2.87 in (1976)
Month to date precipitation 4.52 2.06  
Year to date precipitation 32.89 27.22  
Snow  
Snow 0.00 in 0.00 in 0.00 in ()
Month to date snowfall 0.0 0.0  
Since 1 July snowfall 0.0 0.0  
Since 1 September snowfall 0.0 0.0  
Snow Depth 0.00 in    
Sea Level Pressure  
Sea Level Pressure 30.20 in    
Wind  
Wind Speed 6 mph (ENE)    
Max Wind Speed 13 mph    
Max Gust Speed 17 mph    
Visibility 10 miles    
Events      
T = Trace of Precipitation, MM = Missing Value Source: NWS Daily Summary

Daily Weather History Graph

Daily Weather History Graph

Search for Another Location

Airport or City:

Astronomy

Sep. 17, 2019 Rise Set
Actual Time 6:56 AM EDT 7:21 PM EDT
Civil Twilight 6:28 AM EDT 7:50 PM EDT
Nautical Twilight 5:54 AM EDT 8:23 PM EDT
Astronomical Twilight 5:20 AM EDT 8:57 PM EDT
Moon 9:19 PM EDT (9/17) 10:03 AM EDT (9/17)
Length of Visible Light 13h 21m
Length of Day
12h 25m
Waning Gibbous, 89% of the Moon is Illuminated
Sep 17
Waning Gibbous
Sep 21
Last Quarter
Sep 28
New
Oct 5
First Quarter
Oct 13
Full

Hourly Weather History & Observations

Time (EDT) Temp. Dew Point Humidity Pressure Visibility Wind Dir Wind Speed Gust Speed Precip Events Conditions
12:54 AM 60.1 °F 48.0 °F 64% 30.14 in 10.0 mi East 5.8 mph - N/A   Mostly Cloudy
1:54 AM 60.1 °F 46.9 °F 62% 30.15 in 10.0 mi East 5.8 mph - N/A   Scattered Clouds
2:54 AM 57.0 °F 46.9 °F 69% 30.16 in 10.0 mi East 3.5 mph - N/A   Mostly Cloudy
3:54 AM 55.9 °F 46.9 °F 72% 30.16 in 10.0 mi ENE 4.6 mph - N/A   Clear
4:54 AM 52.0 °F 46.9 °F 83% 30.17 in 10.0 mi North 4.6 mph - N/A   Clear
5:54 AM 53.1 °F 46.9 °F 80% 30.17 in 10.0 mi NNE 3.5 mph - N/A   Partly Cloudy
6:54 AM 52.0 °F 46.9 °F 83% 30.20 in 10.0 mi NE 3.5 mph - N/A   Partly Cloudy
7:54 AM 55.0 °F 46.9 °F 74% 30.21 in 10.0 mi ESE 4.6 mph - N/A   Scattered Clouds
8:54 AM 59.0 °F 48.0 °F 67% 30.24 in 10.0 mi Calm Calm - N/A   Partly Cloudy
9:54 AM 64.9 °F 48.9 °F 56% 30.24 in 10.0 mi Calm Calm - N/A   Partly Cloudy
10:54 AM 68.0 °F 50.0 °F 52% 30.24 in 10.0 mi Variable 3.5 mph - N/A   Partly Cloudy
11:54 AM 70.0 °F 46.9 °F 44% 30.23 in 10.0 mi ENE 6.9 mph - N/A   Partly Cloudy
12:54 PM 71.1 °F 48.0 °F 44% 30.22 in 10.0 mi ENE 5.8 mph - N/A   Partly Cloudy
1:54 PM 73.0 °F 48.9 °F 42% 30.21 in 10.0 mi NE 3.5 mph - N/A   Partly Cloudy
2:54 PM 73.0 °F 48.9 °F 42% 30.20 in 10.0 mi ENE 9.2 mph 17.3 mph N/A   Partly Cloudy
3:54 PM 73.9 °F 51.1 °F 45% 30.19 in 10.0 mi East 8.1 mph - N/A   Partly Cloudy
4:54 PM 73.0 °F 52.0 °F 48% 30.19 in 10.0 mi NNE 9.2 mph - N/A   Partly Cloudy
5:54 PM 72.0 °F 53.1 °F 51% 30.19 in 10.0 mi NE 8.1 mph - N/A   Partly Cloudy
6:54 PM 69.1 °F 53.1 °F 57% 30.20 in 10.0 mi NE 9.2 mph - N/A   Partly Cloudy
7:54 PM 64.9 °F 51.1 °F 61% 30.19 in 10.0 mi NE 6.9 mph - N/A   Partly Cloudy
8:54 PM 63.0 °F 52.0 °F 67% 30.21 in 10.0 mi ENE 5.8 mph - N/A   Partly Cloudy
9:54 PM 62.1 °F 50.0 °F 65% 30.21 in 10.0 mi ESE 8.1 mph - N/A   Clear
10:54 PM 60.1 °F 50.0 °F 69% 30.22 in 10.0 mi SE 5.8 mph - N/A   Clear
11:54 PM 59.0 °F 48.9 °F 69% 30.22 in 10.0 mi SE 5.8 mph - N/A   Clear